Tracking 30922 objects as of 2-Jul-2025
HD Live streaming from Space Station
objects crossing your sky now

COSMOS 860 COOLANT

Track COSMOS 860 COOLANT now!
10-day predictions


NORAD ID: 29195
Int'l Code: 1976-103H
Perigee: 889.7 km
Apogee: 1,002.2 km
Inclination: 64.7 °
Period: 103.8 minutes
Semi major axis: 7316 km
RCS: 0.0092 m2 (small)
Launch date: October 17, 1976
Source: Commonwealth of Independent States (former USSR) (CIS)
Launch site: TYURATAM MISSILE AND SPACE COMPLEX (TTMTR)

Note: This is SATELLITE DEBRIS
Your satellite tracking list
Your tracking list is empty




NASA's NSSDC Master Catalog

Two Line Element Set (TLE):
1 29195U 76103H   25176.50751999  .00000090  00000-0  15090-3 0  9996
2 29195  64.6966 221.7028 0076867 274.8413  84.3873 13.87102536126413
Source of the keplerian elements: AFSPC